period_start,C,m1,H,J0,J1,J2,J3,J4,J5,JA,JB,JC,JD,JJ,JK,JN,#
2014-11-06 00:04:19,0.13,0.70,0.00,21.22,26.02,28.98,4.76,27.17,998.05,2038.99,3160.06,3133.02,3386.70,350.14,343.50,5.26,0000 0000 0000 0000 000000
2014-11-06 00:09:20,0.14,0.70,0.00,21.25,26.02,28.99,4.85,27.23,997.90,2038.98,3158.44,3131.84,3385.38,350.41,343.76,5.29,0000 0000 0000 0000 000000
2014-11-06 00:14:22,0.12,0.71,0.00,21.27,26.02,29.02,4.84,27.22,997.70,2038.98,3156.87,3130.76,3384.04,350.40,343.61,5.32,0000 0000 0000 0000 000000
2014-11-06 00:19:23,0.14,0.71,0.00,21.26,26.02,29.02,4.74,27.28,997.95,2038.98,3155.26,3129.55,3382.75,349.95,343.13,5.35,0000 0000 0000 0000 000000
2014-11-06 00:24:24,0.13,0.71,0.00,21.28,26.02,28.99,4.72,27.18,998.04,2038.97,3153.58,3128.41,3381.41,349.75,342.99,5.38,0000 0000 0000 0000 000000
2014-11-06 00:29:26,0.12,0.72,0.00,21.28,26.02,28.96,4.83,27.18,998.06,2038.98,3151.97,3127.34,3380.20,350.37,343.69,5.41,0000 0000 0000 0000 000000
2014-11-06 00:34:27,0.12,0.72,0.00,21.28,26.02,28.97,4.78,27.21,998.06,2038.98,3150.45,3126.20,3378.87,350.60,343.74,5.44,0000 0000 0000 0000 000000
2014-11-06 00:39:28,0.13,0.72,0.00,21.31,26.02,28.93,4.68,27.20,998.02,2038.95,3148.75,3125.14,3377.65,349.59,342.86,5.47,0000 0000 0000 0000 000000
2014-11-06 00:44:29,0.13,0.73,0.00,21.30,26.02,28.95,4.77,27.07,997.81,2038.93,3147.19,3123.95,3376.40,350.63,343.84,5.50,0000 0000 0000 0000 000000
2014-11-06 00:49:31,0.13,0.73,0.00,21.29,26.02,28.92,4.71,27.08,997.72,2038.98,3145.66,3122.84,3375.23,349.83,343.10,5.53,0000 0000 0000 0000 000000
2014-11-06 00:54:32,0.10,0.74,0.00,21.32,26.02,28.89,4.78,27.09,997.60,2038.96,3144.22,3121.87,3374.04,350.49,343.61,5.56,0000 0000 0000 0000 000000
2014-11-06 00:59:33,0.14,0.74,0.00,21.35,26.02,28.90,4.71,26.97,997.57,2038.96,3142.63,3120.75,3372.79,349.89,343.21,5.58,0000 0000 0000 0000 000000
2014-11-06 01:04:34,0.13,0.74,0.00,21.39,26.03,28.87,4.76,27.11,997.57,2038.94,3141.06,3119.67,3371.60,349.93,342.98,5.61,0000 0000 0000 0000 000000
2014-11-06 01:09:36,0.11,0.75,0.00,21.42,26.04,28.85,4.72,27.01,997.57,2038.90,3139.50,3118.49,3370.35,349.49,342.72,5.64,0000 0000 0000 0000 000000
2014-11-06 01:14:37,0.12,0.75,0.00,21.45,26.05,28.82,4.74,27.07,997.58,2038.83,3137.85,3117.39,3369.02,349.89,342.75,5.67,0000 0000 0000 0000 000000
2014-11-06 01:19:38,0.10,0.75,0.00,21.47,26.05,28.82,4.70,27.22,997.57,2038.66,3136.12,3116.19,3367.84,349.90,342.76,5.70,0000 0000 0000 0000 000000
2014-11-06 01:24:39,0.12,0.76,0.00,21.48,26.05,28.80,4.72,27.13,997.57,2038.67,3134.77,3115.21,3366.72,349.70,342.62,5.73,0000 0000 0000 0000 000000
2014-11-06 01:29:40,0.12,0.76,0.00,21.48,26.06,28.79,4.65,27.13,997.39,2038.71,3133.44,3114.17,3365.55,349.74,342.62,5.76,0000 0000 0000 0000 000000
2014-11-06 01:34:42,0.12,0.77,0.00,21.51,26.07,28.83,4.75,27.19,997.34,2038.71,3131.93,3113.22,3364.48,350.22,342.97,5.79,0000 0000 0000 0000 000000
2014-11-06 01:39:43,0.09,0.77,0.00,21.51,26.07,28.80,4.78,27.20,997.21,2038.44,3130.41,3112.13,3363.25,349.58,342.41,5.82,0000 0000 0000 0000 000000
2014-11-06 01:44:45,0.13,0.77,0.00,21.54,26.09,28.78,4.72,27.18,997.10,2038.75,3129.11,3111.15,3362.18,349.54,342.15,5.85,0000 0000 0000 0000 000000
2014-11-06 01:49:46,0.11,0.78,0.00,21.63,26.10,28.81,4.71,27.26,997.09,2038.61,3127.66,3110.07,3360.93,349.62,342.32,5.88,0000 0000 0000 0000 000000
2014-11-06 01:54:47,0.06,0.78,0.00,21.73,26.11,28.83,4.76,27.22,997.09,2038.29,3126.09,3109.04,3359.73,350.34,342.62,5.91,0000 0000 0000 0000 000000
2014-11-06 01:59:48,0.11,0.78,0.00,21.82,26.12,28.83,4.76,27.14,997.09,2038.15,3124.66,3107.97,3358.57,350.22,342.58,5.94,0000 0000 0000 0000 000000
2014-11-06 02:04:49,0.10,0.78,0.00,21.90,26.14,28.86,4.73,27.13,997.09,2038.03,3123.11,3106.87,3357.37,349.57,341.86,5.97,0000 0000 0000 0000 000000
2014-11-06 02:09:50,0.13,0.79,0.00,21.97,26.15,28.83,4.78,27.11,997.10,2038.02,3121.62,3105.75,3356.18,350.09,342.29,5.99,0000 0000 0000 0000 000000
2014-11-06 02:14:51,0.13,0.79,0.00,21.98,26.17,28.86,4.73,27.13,997.11,2038.02,3120.16,3104.66,3354.91,349.77,341.95,6.02,0000 0000 0000 0000 000000
2014-11-06 02:19:52,0.13,0.79,0.00,21.94,26.19,28.87,4.68,27.02,997.11,2038.01,3118.60,3103.54,3353.62,350.36,342.54,6.05,0000 0000 0000 0000 000000
2014-11-06 02:24:54,0.12,0.80,0.00,21.94,26.21,28.90,4.69,27.19,997.09,2038.00,3117.03,3102.36,3352.33,350.10,342.22,6.08,0000 0000 0000 0000 000000
2014-11-06 02:29:55,0.13,0.80,0.00,21.95,26.23,28.91,4.75,27.30,997.09,2038.00,3115.43,3101.19,3350.96,350.14,342.35,6.11,0000 0000 0000 0000 000000
2014-11-06 02:34:56,0.13,0.81,0.00,21.99,26.25,28.95,4.73,27.27,997.05,2038.00,3113.87,3100.03,3349.63,349.96,342.03,6.14,0000 0000 0000 0000 000000
2014-11-06 02:39:57,0.12,0.81,0.00,22.02,26.27,28.94,4.73,27.13,996.76,2037.99,3112.40,3098.91,3348.42,350.24,342.10,6.17,0000 0000 0000 0000 000000
2014-11-06 02:44:58,0.11,0.81,0.00,22.03,26.30,28.98,4.72,27.04,996.79,2037.98,3111.02,3097.87,3347.27,349.92,341.95,6.20,0000 0000 0000 0000 000000
2014-11-06 02:50:00,0.12,0.82,0.00,22.06,26.32,28.98,4.71,26.96,996.64,2037.97,3109.54,3096.83,3346.06,350.30,342.10,6.23,0000 0000 0000 0000 000000
2014-11-06 02:55:01,0.10,0.82,0.00,22.06,26.35,29.04,4.71,27.02,996.61,2037.80,3107.96,3095.70,3344.74,350.14,342.00,6.26,0000 0000 0000 0000 000000
2014-11-06 03:00:02,0.12,0.82,0.00,22.08,26.37,29.06,4.80,27.11,996.61,2037.75,3106.59,3094.69,3343.63,350.56,342.45,6.29,0000 0000 0000 0000 000000
2014-11-06 03:05:03,0.05,0.83,0.00,22.10,26.39,29.10,4.64,27.08,996.69,2037.29,3105.12,3093.62,3342.44,349.95,341.85,6.32,0000 0000 0000 0000 000000
2014-11-06 03:10:05,0.10,0.83,0.00,22.11,26.41,29.11,4.74,27.13,996.62,2037.08,3103.58,3092.47,3341.22,350.18,341.92,6.35,0000 0000 0000 0000 000000
2014-11-06 03:15:06,0.10,0.83,0.00,22.12,26.44,29.13,4.74,27.05,996.61,2037.02,3102.28,3091.52,3340.05,350.26,341.67,6.38,0000 0000 0000 0000 000000
2014-11-06 03:20:07,0.13,0.83,0.00,22.17,26.46,29.15,4.75,26.99,996.66,2037.01,3100.83,3090.49,3338.81,349.90,341.65,6.40,0000 0000 0000 0000 000000
2014-11-06 03:25:08,0.11,0.84,0.00,22.18,26.48,29.18,4.82,27.02,997.02,2037.00,3099.56,3089.48,3337.71,350.76,342.67,6.43,0000 0000 0000 0000 000000
2014-11-06 03:30:10,0.11,0.84,0.00,22.16,26.50,29.20,4.69,26.87,996.96,2037.00,3098.19,3088.49,3336.62,349.89,341.90,6.46,0000 0000 0000 0000 000000
2014-11-06 03:35:11,0.12,0.85,0.00,22.20,26.52,29.23,4.73,27.00,996.75,2036.99,3096.66,3087.41,3335.47,349.82,341.65,6.49,0000 0000 0000 0000 000000
2014-11-06 03:40:12,0.11,0.85,0.00,22.21,26.55,29.25,4.67,27.13,996.62,2036.98,3095.21,3086.36,3334.33,349.83,341.59,6.52,0000 0000 0000 0000 000000
2014-11-06 03:45:13,0.11,0.85,0.00,22.20,26.57,29.26,4.61,26.92,996.61,2036.97,3093.81,3085.31,3333.18,349.30,340.97,6.55,0000 0000 0000 0000 000000
2014-11-06 03:50:14,0.07,0.86,0.00,22.20,26.58,29.27,4.69,27.02,996.60,2036.68,3092.31,3084.20,3331.95,350.01,341.73,6.58,0000 0000 0000 0000 000000
2014-11-06 03:55:15,0.10,0.86,0.00,22.23,26.61,29.29,4.76,27.16,996.60,2036.56,3090.90,3083.17,3330.82,350.36,342.05,6.61,0000 0000 0000 0000 000000
2014-11-06 04:00:17,0.10,0.86,0.00,22.24,26.62,29.33,4.75,27.17,996.60,2036.47,3089.60,3082.26,3329.76,350.23,342.14,6.64,0000 0000 0000 0000 000000
2014-11-06 04:05:18,0.06,0.86,0.00,22.28,26.65,29.34,4.62,26.96,996.57,2036.14,3088.20,3081.19,3328.60,349.95,341.84,6.67,0000 0000 0000 0000 000000
2014-11-06 04:10:19,0.11,0.87,0.00,22.33,26.67,29.35,4.68,27.09,996.22,2036.03,3086.78,3080.15,3327.52,349.80,341.29,6.70,0000 0000 0000 0000 000000
2014-11-06 04:15:21,0.12,0.87,0.00,22.30,26.69,29.37,4.72,27.09,996.12,2036.02,3085.41,3079.17,3326.46,350.04,341.51,6.73,0000 0000 0000 0000 000000
2014-11-06 04:20:22,0.11,0.87,0.00,22.30,26.71,29.43,4.76,26.93,996.12,2036.00,3084.01,3078.16,3325.37,350.24,341.67,6.76,0000 0000 0000 0000 000000
2014-11-06 04:25:23,0.12,0.88,0.00,22.34,26.73,29.46,4.80,26.85,996.11,2036.00,3082.64,3077.07,3324.18,350.21,341.61,6.79,0000 0000 0000 0000 000000
2014-11-06 04:30:24,0.12,0.88,0.00,22.35,26.75,29.44,4.75,27.11,996.10,2036.00,3081.23,3076.02,3323.00,350.43,341.84,6.81,0000 0000 0000 0000 000000
2014-11-06 04:35:25,0.12,0.88,0.00,22.34,26.77,29.46,4.71,27.04,995.90,2035.99,3079.79,3075.00,3321.90,350.22,341.72,6.84,0000 0000 0000 0000 000000
2014-11-06 04:40:27,0.12,0.89,0.00,22.34,26.79,29.49,4.68,27.22,995.82,2035.97,3078.33,3073.98,3320.72,350.11,341.33,6.87,0000 0000 0000 0000 000000
2014-11-06 04:45:28,0.10,0.89,0.00,22.36,26.81,29.50,4.71,27.07,995.72,2035.95,3077.02,3073.04,3319.70,350.06,341.52,6.90,0000 0000 0000 0000 000000
2014-11-06 04:50:29,0.10,0.89,0.00,22.37,26.82,29.52,4.66,27.13,995.74,2035.84,3075.74,3072.06,3318.66,350.11,341.38,6.93,0000 0000 0000 0000 000000
2014-11-06 04:55:31,0.08,0.90,0.00,22.40,26.85,29.55,4.70,27.18,995.80,2035.63,3074.47,3071.13,3317.58,350.15,341.46,6.96,0000 0000 0000 0000 000000
2014-11-06 05:00:32,0.04,0.90,0.00,22.42,26.86,29.56,4.71,27.05,995.97,2035.31,3073.15,3070.26,3316.51,350.15,341.34,6.99,0000 0000 0000 0000 000000
2014-11-06 05:05:33,0.09,0.90,0.00,22.43,26.88,29.59,4.66,26.89,995.98,2035.12,3071.88,3069.31,3315.53,350.25,341.42,7.02,0000 0000 0000 0000 000000
2014-11-06 05:10:35,0.11,0.90,0.00,22.42,26.90,29.60,4.67,26.98,995.85,2035.06,3070.78,3068.45,3314.55,350.04,341.13,7.05,0000 0000 0000 0000 000000
2014-11-06 05:15:36,0.09,0.91,0.00,22.42,26.92,29.62,4.68,26.82,995.69,2035.04,3069.52,3067.56,3313.49,350.28,341.43,7.08,0000 0000 0000 0000 000000
2014-11-06 05:20:37,0.11,0.91,0.00,22.43,26.93,29.65,4.77,26.77,995.63,2035.02,3068.28,3066.60,3312.51,349.87,341.26,7.11,0000 0000 0000 0000 000000
2014-11-06 05:25:38,0.09,0.91,0.00,22.45,26.95,29.64,4.69,26.87,995.63,2035.01,3066.99,3065.74,3311.59,349.95,341.18,7.14,0000 0000 0000 0000 000000
2014-11-06 05:30:40,0.10,0.91,0.00,22.43,26.97,29.67,4.70,27.00,995.63,2035.00,3065.77,3064.83,3310.60,349.97,341.00,7.17,0000 0000 0000 0000 000000
2014-11-06 05:35:41,0.10,0.92,0.00,22.41,26.98,29.69,4.79,27.04,995.66,2035.00,3064.58,3063.93,3309.54,350.14,341.34,7.20,0000 0000 0000 0000 000000
2014-11-06 05:40:42,0.11,0.92,0.00,22.44,27.00,29.70,4.71,27.02,995.68,2034.99,3063.22,3062.95,3308.40,350.05,341.49,7.22,0000 0000 0000 0000 000000
2014-11-06 05:45:43,0.10,0.92,0.00,22.46,27.01,29.72,4.69,26.89,995.64,2034.99,3061.92,3062.03,3307.50,349.57,340.77,7.25,0000 0000 0000 0000 000000
2014-11-06 05:50:45,0.11,0.93,0.00,22.47,27.02,29.74,4.66,26.98,995.63,2034.98,3060.62,3061.08,3306.45,349.67,341.05,7.28,0000 0000 0000 0000 000000
2014-11-06 05:55:46,0.11,0.93,0.00,22.45,27.05,29.75,4.63,26.77,995.62,2034.99,3059.37,3060.13,3305.41,349.92,340.95,7.31,0000 0000 0000 0000 000000
2014-11-06 06:00:48,0.11,0.93,0.00,22.46,27.05,29.81,4.67,26.94,995.62,2034.96,3057.95,3059.12,3304.29,349.92,340.95,7.34,0000 0000 0000 0000 000000
2014-11-06 06:05:49,0.07,0.94,0.00,22.46,27.07,29.80,4.77,26.96,995.61,2034.78,3056.66,3058.15,3303.19,350.24,341.38,7.37,0000 0000 0000 0000 000000
2014-11-06 06:10:50,0.05,0.94,0.00,22.44,27.07,29.79,4.73,27.02,995.47,2034.48,3055.47,3057.17,3302.05,350.43,341.46,7.40,0000 0000 0000 0000 000000
2014-11-06 06:15:51,0.12,0.94,0.00,22.46,27.09,29.80,4.67,27.13,995.31,2034.45,3054.26,3056.33,3301.08,350.17,341.26,7.43,0000 0000 0000 0000 000000
2014-11-06 06:20:52,0.06,0.94,0.00,22.45,27.10,29.84,4.64,27.19,995.34,2034.23,3053.14,3055.59,3300.17,349.73,340.68,7.46,0000 0000 0000 0000 000000
2014-11-06 06:25:54,0.08,0.95,0.00,22.45,27.11,29.86,4.72,27.30,995.56,2034.14,3052.01,3054.75,3299.25,349.87,340.91,7.49,0000 0000 0000 0000 000000
2014-11-06 06:30:55,0.09,0.95,0.00,22.40,27.12,29.88,4.67,27.28,995.61,2034.09,3050.83,3053.85,3298.33,349.82,341.06,7.52,0000 0000 0000 0000 000000
2014-11-06 06:35:56,0.10,0.95,0.00,22.38,27.12,29.89,4.77,27.14,995.62,2034.04,3049.60,3052.94,3297.25,350.69,341.56,7.55,0000 0000 0000 0000 000000
2014-11-06 06:40:58,0.09,0.96,0.00,22.43,27.13,29.93,4.62,27.10,995.63,2034.02,3048.37,3052.04,3296.29,349.70,340.73,7.58,0000 0000 0000 0000 000000
2014-11-06 06:45:59,0.10,0.96,0.00,22.43,27.15,29.93,4.64,26.88,995.70,2034.01,3047.24,3051.20,3295.43,349.66,340.87,7.61,0000 0000 0000 0000 000000
2014-11-06 06:51:00,0.11,0.96,0.00,22.44,27.15,29.99,4.72,26.83,995.72,2034.02,3046.03,3050.28,3294.38,349.70,340.92,7.63,0000 0000 0000 0000 000000
2014-11-06 06:56:01,0.10,0.96,0.00,22.46,27.15,30.02,4.74,26.76,995.79,2034.01,3044.88,3049.51,3293.49,350.32,341.37,7.66,0000 0000 0000 0000 000000
2014-11-06 07:01:03,0.09,0.97,0.00,22.45,27.16,29.96,4.71,26.79,996.10,2034.01,3043.72,3048.71,3292.61,349.97,341.41,7.69,0000 0000 0000 0000 000000
2014-11-06 07:06:04,0.10,0.97,0.00,22.48,27.17,30.01,4.72,26.73,996.10,2034.01,3042.50,3047.82,3291.59,349.82,341.09,7.72,0000 0000 0000 0000 000000
2014-11-06 07:11:06,0.10,0.97,0.00,22.51,27.17,29.96,4.72,26.88,995.96,2034.00,3041.30,3046.90,3290.55,349.74,341.00,7.75,0000 0000 0000 0000 000000
2014-11-06 07:16:07,0.11,0.98,0.00,22.52,27.17,30.00,4.73,26.84,995.88,2034.00,3039.99,3045.94,3289.51,349.82,341.16,7.78,0000 0000 0000 0000 000000
2014-11-06 07:21:08,0.13,0.98,0.00,22.49,27.18,29.95,4.72,26.83,995.77,2034.00,3038.65,3044.94,3288.40,350.13,341.51,7.81,0000 0000 0000 0000 000000
2014-11-06 07:26:09,0.11,0.98,0.00,22.52,27.20,29.98,4.65,26.92,995.63,2034.00,3037.31,3043.95,3287.29,349.88,341.01,7.84,0000 0000 0000 0000 000000
2014-11-06 07:31:10,0.11,0.99,0.00,22.55,27.20,29.99,4.69,26.92,995.62,2034.00,3035.96,3043.00,3286.18,349.95,341.03,7.87,0000 0000 0000 0000 000000
2014-11-06 07:36:12,0.12,0.99,0.00,22.60,27.20,29.93,4.66,26.87,995.63,2033.99,3034.63,3041.97,3285.03,349.83,340.98,7.90,0000 0000 0000 0000 000000
2014-11-06 07:41:13,0.10,0.99,0.00,22.64,27.20,29.95,4.75,26.77,995.60,2033.99,3033.31,3041.01,3283.96,350.00,340.85,7.93,0000 0000 0000 0000 000000
2014-11-06 07:46:14,0.14,1.00,0.00,22.61,27.22,29.94,4.66,26.83,995.43,2033.98,3031.86,3039.94,3282.73,349.96,340.88,7.96,0000 0000 0000 0000 000000
2014-11-06 07:51:16,0.12,1.00,0.00,22.60,27.22,29.97,4.74,26.82,995.17,2033.99,3030.56,3038.87,3281.58,350.23,341.16,7.99,0000 0000 0000 0000 000000
2014-11-06 07:56:17,0.12,1.01,0.00,22.62,27.22,29.96,4.72,26.88,995.14,2033.99,3029.17,3037.85,3280.37,350.05,340.77,8.02,0000 0000 0000 0000 000000
2014-11-06 08:01:18,0.14,1.01,0.00,22.61,27.24,29.96,4.80,27.05,995.09,2033.99,3027.72,3036.72,3279.22,349.98,340.84,8.04,0000 0000 0000 0000 000000
2014-11-06 08:06:19,0.12,1.01,0.00,22.60,27.25,29.96,4.71,26.88,994.74,2033.98,3026.37,3035.69,3277.86,349.93,340.59,8.07,0000 0000 0000 0000 000000
2014-11-06 08:11:21,0.14,1.02,0.00,22.61,27.25,29.97,4.66,26.84,994.66,2033.95,3024.82,3034.48,3276.57,349.83,340.31,8.10,0000 0000 0000 0000 000000
2014-11-06 08:16:22,0.12,1.02,0.00,22.65,27.27,29.99,4.77,27.07,994.65,2033.97,3023.48,3033.44,3275.39,350.10,340.69,8.13,0000 0000 0000 0000 000000
2014-11-06 08:21:23,0.12,1.02,0.00,22.64,27.27,29.98,4.69,27.01,994.65,2033.96,3021.99,3032.30,3274.10,350.01,340.56,8.16,0000 0000 0000 0000 000000
2014-11-06 08:26:25,0.12,1.03,0.00,22.62,27.28,30.02,4.66,27.00,994.67,2033.92,3020.61,3031.28,3272.84,349.29,339.84,8.19,0000 0000 0000 0000 000000
2014-11-06 08:31:26,0.10,1.03,0.00,22.60,27.30,30.00,4.70,26.90,994.92,2033.83,3019.20,3030.19,3271.62,349.84,340.51,8.22,0000 0000 0000 0000 000000
2014-11-06 08:36:28,0.06,1.03,0.00,22.62,27.30,30.06,4.64,27.07,995.12,2033.53,3017.80,3029.13,3270.42,350.05,340.82,8.25,0000 0000 0000 0000 000000
2014-11-06 08:41:29,0.11,1.04,0.00,22.64,27.31,30.05,4.66,27.06,995.13,2033.36,3016.47,3028.12,3269.28,349.25,340.02,8.28,0000 0000 0000 0000 000000
2014-11-06 08:46:31,0.10,1.04,0.00,22.61,27.32,30.08,4.75,27.00,995.12,2033.34,3015.28,3027.20,3268.19,350.17,340.95,8.31,0000 0000 0000 0000 000000
2014-11-06 08:51:32,0.09,1.04,0.00,22.58,27.32,30.12,4.69,27.12,994.97,2033.14,3013.85,3026.19,3267.02,349.87,340.64,8.34,0000 0000 0000 0000 000000
2014-11-06 08:56:33,0.11,1.05,0.00,22.59,27.32,30.14,4.71,27.07,994.72,2033.05,3012.49,3025.14,3265.85,350.09,340.73,8.37,0000 0000 0000 0000 000000
2014-11-06 09:01:34,0.12,1.05,0.00,22.61,27.33,30.22,4.65,26.99,994.85,2033.04,3011.11,3024.08,3264.65,349.98,340.68,8.40,0000 0000 0000 0000 000000
2014-11-06 09:06:36,0.11,1.05,0.00,22.64,27.35,30.24,4.66,27.06,995.13,2033.01,3009.86,3023.10,3263.66,349.51,340.22,8.43,0000 0000 0000 0000 000000
2014-11-06 09:11:37,0.11,1.06,0.00,22.62,27.35,30.20,4.73,26.99,995.07,2033.00,3008.55,3022.15,3262.67,350.18,340.91,8.46,0000 0000 0000 0000 000000
2014-11-06 09:16:38,0.11,1.06,0.00,22.57,27.35,30.18,4.73,27.00,994.76,2033.01,3007.41,3021.19,3261.67,350.41,341.24,8.48,0000 0000 0000 0000 000000
2014-11-06 09:21:40,0.11,1.06,0.00,22.60,27.35,30.22,4.66,27.00,994.66,2033.00,3006.11,3020.23,3260.62,349.76,340.31,8.51,0000 0000 0000 0000 000000
2014-11-06 09:26:41,0.12,1.07,0.00,22.60,27.35,30.27,4.75,27.04,994.85,2033.00,3004.77,3019.22,3259.55,350.19,340.89,8.54,0000 0000 0000 0000 000000
2014-11-06 09:31:42,0.11,1.07,0.00,22.62,27.35,30.26,4.71,27.19,994.70,2033.00,3003.58,3018.34,3258.51,350.04,340.68,8.57,0000 0000 0000 0000 000000
2014-11-06 09:36:43,0.11,1.07,0.00,22.59,27.36,30.28,4.75,27.15,994.64,2033.00,3002.20,3017.35,3257.47,350.72,341.49,8.60,0000 0000 0000 0000 000000
2014-11-06 09:41:44,0.12,1.08,0.00,22.55,27.37,30.27,4.69,27.15,994.70,2033.00,3000.73,3016.24,3256.26,350.20,340.94,8.63,0000 0000 0000 0000 000000
2014-11-06 09:51:54,0.11,1.08,0.00,22.59,27.37,30.29,4.70,27.14,994.64,2033.00,2998.14,3014.24,3254.02,350.04,340.61,8.69,0000 0000 0000 0000 000000
2014-11-06 09:56:54,0.12,1.09,0.00,22.59,27.37,30.28,4.78,27.04,994.68,2033.00,2996.87,3013.28,3252.96,350.20,340.83,8.72,0000 0000 0000 0000 000000
2014-11-06 10:01:56,0.11,1.09,0.00,22.54,27.37,30.24,4.75,27.02,994.80,2033.00,2995.66,3012.37,3251.93,350.28,340.87,8.75,0000 0000 0000 0000 000000
2014-11-06 10:06:57,0.11,1.09,0.00,22.51,27.37,30.28,4.77,27.04,995.02,2033.00,2994.40,3011.44,3250.92,349.88,340.67,8.78,0000 0000 0000 0000 000000
2014-11-06 10:11:59,0.11,1.10,0.00,22.56,27.37,30.30,4.65,27.06,994.80,2033.00,2993.06,3010.49,3249.83,350.03,340.69,8.81,0000 0000 0000 0000 000000
2014-11-06 10:17:00,0.10,1.10,0.00,22.58,27.37,30.30,4.81,27.08,994.66,2033.00,2991.87,3009.49,3248.82,350.06,340.77,8.84,0000 0000 0000 0000 000000
2014-11-06 10:22:02,0.12,1.10,0.00,22.57,27.37,30.31,4.76,27.07,994.65,2033.00,2990.57,3008.60,3247.75,350.30,340.84,8.87,0000 0000 0000 0000 000000
2014-11-06 10:27:03,0.07,1.11,0.00,22.57,27.37,30.29,4.75,27.14,994.64,2033.00,2989.53,3007.90,3246.82,350.37,341.17,8.89,0000 0000 0000 0000 000000
2014-11-06 10:32:04,0.10,1.11,0.00,22.57,27.37,30.33,4.78,27.07,994.64,2033.00,2988.28,3007.02,3245.79,350.36,341.21,8.92,0000 0000 0000 0000 000000
2014-11-06 10:37:05,0.11,1.11,0.00,22.61,27.37,30.32,4.71,26.98,994.51,2033.00,2987.05,3006.09,3244.74,350.05,340.57,8.95,0000 0000 0000 0000 000000
2014-11-06 10:42:07,0.10,1.12,0.00,22.60,27.37,30.30,4.80,27.11,994.45,2032.99,2985.88,3005.19,3243.81,349.86,340.57,8.98,0000 0000 0000 0000 000000
2014-11-06 10:47:08,0.13,1.12,0.00,22.57,27.37,30.27,4.77,27.07,994.41,2032.99,2984.59,3004.29,3242.73,349.76,340.35,9.01,0000 0000 0000 0000 000000
2014-11-06 10:52:09,0.10,1.12,0.00,22.57,27.37,30.25,4.72,27.05,994.56,2032.99,2983.48,3003.44,3241.79,350.14,340.77,9.04,0000 0000 0000 0000 000000
2014-11-06 10:57:10,0.10,1.13,0.00,22.58,27.37,30.31,4.67,26.89,994.87,2032.99,2982.34,3002.56,3240.77,349.55,340.17,9.07,0000 0000 0000 0000 000000
2014-11-06 11:02:12,0.09,1.13,0.00,22.63,27.37,30.29,4.71,27.20,994.65,2032.99,2981.16,3001.72,3239.82,350.11,340.71,9.10,0000 0000 0000 0000 000000
2014-11-06 11:07:13,0.09,1.13,0.00,22.58,27.37,30.29,4.80,27.13,994.55,2032.99,2980.05,3000.86,3238.84,349.68,340.33,9.13,0000 0000 0000 0000 000000
2014-11-06 11:12:14,0.09,1.14,0.00,22.56,27.37,30.26,4.65,27.11,994.17,2032.99,2978.90,3000.00,3237.93,350.12,340.59,9.16,0000 0000 0000 0000 000000
2014-11-06 11:17:15,0.12,1.14,0.00,22.55,27.37,30.27,4.72,27.03,994.16,2032.99,2977.64,2999.08,3236.92,349.92,340.65,9.19,0000 0000 0000 0000 000000
2014-11-06 11:22:17,0.11,1.14,0.00,22.53,27.37,30.27,4.67,27.14,994.00,2032.99,2976.41,2998.12,3235.90,349.73,340.27,9.22,0000 0000 0000 0000 000000
2014-11-06 11:27:18,0.11,1.15,0.00,22.53,27.37,30.28,4.83,27.21,993.85,2032.99,2975.19,2997.24,3234.90,350.46,340.98,9.25,0000 0000 0000 0000 000000
2014-11-06 11:32:19,0.10,1.15,0.00,22.55,27.37,30.30,4.65,26.88,994.16,2032.99,2973.96,2996.32,3233.99,349.72,340.27,9.28,0000 0000 0000 0000 000000
2014-11-06 11:37:21,0.11,1.15,0.00,22.56,27.37,30.30,4.77,27.27,994.16,2032.99,2972.75,2995.45,3232.98,350.09,340.51,9.30,0000 0000 0000 0000 000000
2014-11-06 11:42:22,0.10,1.15,0.00,22.55,27.37,30.26,4.76,27.32,993.75,2032.99,2971.65,2994.63,3232.04,350.19,340.58,9.33,0000 0000 0000 0000 000000
2014-11-06 11:47:23,0.10,1.16,0.00,22.52,27.37,30.27,4.66,27.19,993.97,2032.99,2970.54,2993.74,3231.12,350.37,340.79,9.36,0000 0000 0000 0000 000000
2014-11-06 11:52:25,0.08,1.16,0.00,22.54,27.37,30.25,4.72,27.27,993.86,2032.99,2969.54,2992.99,3230.21,350.23,340.76,9.39,0000 0000 0000 0000 000000
2014-11-06 11:57:26,0.11,1.16,0.00,22.55,27.37,30.25,4.82,27.20,993.67,2032.99,2968.34,2992.14,3229.26,350.26,340.38,9.42,0000 0000 0000 0000 000000
2014-11-06 12:02:27,0.10,1.17,0.00,22.52,27.37,30.27,4.73,27.23,993.68,2032.99,2967.29,2991.42,3228.43,350.37,340.69,9.45,0000 0000 0000 0000 000000
2014-11-06 12:07:29,0.09,1.17,0.00,22.51,27.37,30.27,4.70,27.16,993.92,2032.99,2966.26,2990.61,3227.59,350.06,340.46,9.48,0000 0000 0000 0000 000000
2014-11-06 12:12:30,0.07,1.17,0.00,22.53,27.37,30.30,4.68,26.93,994.05,2032.99,2965.26,2989.88,3226.77,349.70,340.30,9.51,0000 0000 0000 0000 000000
2014-11-06 12:17:31,0.09,1.18,0.00,22.54,27.37,30.31,4.78,27.13,993.76,2032.99,2964.12,2989.04,3225.93,350.45,340.67,9.54,0000 0000 0000 0000 000000
2014-11-06 12:22:32,0.11,1.18,0.00,22.50,27.37,30.32,4.79,27.03,993.80,2033.00,2963.07,2988.24,3225.01,349.91,340.46,9.57,0000 0000 0000 0000 000000
2014-11-06 12:27:33,0.10,1.18,0.00,22.48,27.37,30.30,4.74,27.02,994.02,2033.00,2961.96,2987.46,3224.09,350.08,340.64,9.60,0000 0000 0000 0000 000000
2014-11-06 12:32:34,0.10,1.18,0.00,22.51,27.37,30.31,4.74,27.06,993.68,2033.00,2960.89,2986.70,3223.14,350.44,340.85,9.63,0000 0000 0000 0000 000000
2014-11-06 12:37:35,0.10,1.19,0.00,22.55,27.37,30.30,4.73,27.18,993.68,2033.00,2959.75,2985.84,3222.26,350.14,340.44,9.66,0000 0000 0000 0000 000000
2014-11-06 12:42:36,0.09,1.19,0.00,22.52,27.37,30.31,4.66,27.12,993.67,2033.00,2958.73,2985.04,3221.38,349.92,340.28,9.69,0000 0000 0000 0000 000000
2014-11-06 12:47:37,0.10,1.19,0.00,22.51,27.37,30.32,4.72,27.10,993.67,2033.00,2957.73,2984.28,3220.62,350.13,340.18,9.71,0000 0000 0000 0000 000000
2014-11-06 12:52:39,0.08,1.19,0.00,22.54,27.37,30.28,4.72,27.23,993.66,2033.00,2956.72,2983.58,3219.78,349.93,340.31,9.74,0000 0000 0000 0000 000000
2014-11-06 12:57:40,0.08,1.20,0.00,22.55,27.37,30.29,4.65,27.22,993.47,2033.00,2955.60,2982.80,3218.96,349.86,340.07,9.77,0000 0000 0000 0000 000000
2014-11-06 13:02:41,0.09,1.20,0.00,22.55,27.37,30.27,4.67,27.21,993.19,2033.00,2954.56,2982.02,3218.07,349.79,340.04,9.80,0000 0000 0000 0000 000000
2014-11-06 13:07:42,0.11,1.20,0.00,22.53,27.37,30.27,4.60,27.12,993.20,2033.00,2953.48,2981.20,3217.16,349.38,339.62,9.83,0000 0000 0000 0000 000000
2014-11-06 13:12:43,0.10,1.21,0.00,22.52,27.37,30.28,4.72,27.19,993.18,2033.00,2952.43,2980.40,3216.32,350.10,340.32,9.86,0000 0000 0000 0000 000000
2014-11-06 13:17:45,0.08,1.21,0.00,22.53,27.37,30.30,4.67,27.05,993.18,2033.00,2951.34,2979.75,3215.51,350.09,340.30,9.89,0000 0000 0000 0000 000000